Hourly Weather Rusy

Today, 14 April, Wednesday

Time Temperature Precipitation Wind Pressure Humidity
00:00 +1°C° 0 mm 3 mps 766 mmHg 89%
01:00 +1°C° 0 mm 3 mps 766 mmHg 90%
02:00 +1°C° 0 mm 3 mps 766 mmHg 88%
03:00 +2°C° 0 mm 2 mps 766 mmHg 87%
04:00 +3°C° 0 mm 2 mps 766 mmHg 85%
05:00 +3°C° 0 mm 2 mps 766 mmHg 83%
06:00 +3°C° 0 mm 3 mps 766 mmHg 81%
07:00 +3°C° 0 mm 3 mps 766 mmHg 79%
08:00 +4°C° 0 mm 3 mps 766 mmHg 75%
09:00 +5°C° 0 mm 4 mps 766 mmHg 70%
10:00 +5°C° 0 mm 4 mps 766 mmHg 66%
11:00 +6°C° 0 mm 5 mps 766 mmHg 65%
12:00 +5°C° 0 mm 6 mps 766 mmHg 65%
13:00 +5°C° 0 mm 7 mps 766 mmHg 64%
14:00 +4°C° 0 mm 7 mps 766 mmHg 66%
15:00 +4°C° 0 mm 7 mps 766 mmHg 68%
16:00 +3°C° 0 mm 7 mps 766 mmHg 70%
17:00 +3°C° 0 mm 6 mps 766 mmHg 73%
18:00 +2°C° 0 mm 6 mps 766 mmHg 77%
19:00 +2°C° 0 mm 6 mps 766 mmHg 80%
20:00 +2°C° 0 mm 6 mps 766 mmHg 81%
21:00 +2°C° 0 mm 6 mps 766 mmHg 83%
22:00 +2°C° 0 mm 6 mps 766 mmHg 84%
23:00 +2°C° 0.1 mm 7 mps 766 mmHg 85%

Tomorrow, 15 April, Thursday

Time Temperature Precipitation Wind Pressure Humidity
00:00 +2°C° 0.1 mm 7 mps 766 mmHg 85%
01:00 +2°C° 0.1 mm 7 mps 766 mmHg 86%
02:00 0°C° 0.1 mm 7 mps 766 mmHg 89%
03:00 0°C° 0.1 mm 8 mps 766 mmHg 92%
04:00 0°C° 0.1 mm 8 mps 765 mmHg 95%
05:00 0°C° 0.3 mm 8 mps 765 mmHg 95%
06:00 0°C° 0.3 mm 8 mps 765 mmHg 96%
07:00 0°C° 0.3 mm 8 mps 765 mmHg 96%
08:00 0°C° 0.2 mm 8 mps 765 mmHg 93%
09:00 +1°C° 0.2 mm 8 mps 765 mmHg 90%
10:00 +1°C° 0.2 mm 8 mps 765 mmHg 88%
11:00 +2°C° 0.1 mm 8 mps 765 mmHg 84%
12:00 +4°C° 0.1 mm 8 mps 765 mmHg 80%
13:00 +6°C° 0.1 mm 7 mps 765 mmHg 76%
14:00 +6°C° 0 mm 7 mps 764 mmHg 75%
15:00 +6°C° 0 mm 7 mps 764 mmHg 74%
16:00 +6°C° 0 mm 7 mps 764 mmHg 73%
17:00 +7°C° 0 mm 6 mps 765 mmHg 74%
18:00 +5°C° 0 mm 6 mps 765 mmHg 75%
19:00 +5°C° 0 mm 6 mps 765 mmHg 76%
20:00 +5°C° 0 mm 6 mps 765 mmHg 76%
21:00 +4°C° 0 mm 6 mps 765 mmHg 75%
22:00 +5°C° 0 mm 5 mps 765 mmHg 75%
23:00 +3°C° 0 mm 6 mps 765 mmHg 75%

Day after tomorrow, 16 April, Friday

Time Temperature Precipitation Wind Pressure Humidity
00:00 +3°C° 0 mm 6 mps 764 mmHg 76%
01:00 +2°C° 0 mm 6 mps 764 mmHg 77%
02:00 +2°C° 0.2 mm 6 mps 764 mmHg 80%
03:00 +2°C° 0.2 mm 6 mps 764 mmHg 84%
04:00 +2°C° 0.2 mm 6 mps 764 mmHg 88%
05:00 +2°C° 0.2 mm 6 mps 764 mmHg 88%
06:00 +2°C° 0.2 mm 6 mps 764 mmHg 88%
07:00 +2°C° 0.2 mm 6 mps 764 mmHg 88%
08:00 +3°C° 0.1 mm 5 mps 764 mmHg 89%
09:00 +3°C° 0.1 mm 5 mps 764 mmHg 89%
10:00 +3°C° 0.1 mm 5 mps 764 mmHg 90%
11:00 +5°C° 0 mm 5 mps 764 mmHg 88%
12:00 +6°C° 0 mm 5 mps 765 mmHg 87%
13:00 +7°C° 0 mm 5 mps 765 mmHg 85%
14:00 +7°C° 0 mm 5 mps 765 mmHg 86%
15:00 +6°C° 0 mm 5 mps 765 mmHg 87%
16:00 +6°C° 0 mm 5 mps 765 mmHg 89%
17:00 +6°C° 0 mm 4 mps 765 mmHg 90%
18:00 +6°C° 0 mm 4 mps 765 mmHg 92%
19:00 +7°C° 0 mm 3 mps 765 mmHg 94%
20:00 +7°C° 0.1 mm 3 mps 765 mmHg 94%
21:00 +7°C° 0.1 mm 3 mps 765 mmHg 94%
22:00 +7°C° 0.1 mm 3 mps 765 mmHg 94%
23:00 +7°C° 0 mm 3 mps 765 mmHg 94%

17 April, Saturday

Time Temperature Precipitation Wind Pressure Humidity
00:00 +7°C° 0 mm 3 mps 765 mmHg 94%
01:00 +7°C° 0 mm 3 mps 765 mmHg 94%
02:00 +7°C° 0 mm 3 mps 765 mmHg 94%
03:00 +7°C° 0 mm 3 mps 765 mmHg 94%
04:00 +7°C° 0 mm 3 mps 765 mmHg 94%
05:00 +7°C° 0.1 mm 3 mps 765 mmHg 94%
06:00 +7°C° 0.1 mm 3 mps 765 mmHg 94%
07:00 +6°C° 0.1 mm 4 mps 765 mmHg 94%
08:00 +7°C° 0.1 mm 4 mps 765 mmHg 92%
09:00 +8°C° 0.1 mm 3 mps 766 mmHg 91%
10:00 +9°C° 0.1 mm 3 mps 766 mmHg 89%
11:00 +10°C° 0 mm 3 mps 766 mmHg 86%
12:00 +10°C° 0 mm 3 mps 766 mmHg 82%
13:00 +11°C° 0 mm 3 mps 766 mmHg 79%
14:00 +12°C° 0 mm 3 mps 765 mmHg 77%
15:00 +12°C° 0 mm 3 mps 765 mmHg 74%
16:00 +12°C° 0 mm 3 mps 765 mmHg 72%
17:00 +11°C° 0.2 mm 3 mps 765 mmHg 78%
18:00 +10°C° 0.2 mm 4 mps 765 mmHg 84%
19:00 +8°C° 0.2 mm 4 mps 765 mmHg 91%
20:00 +8°C° 0.1 mm 4 mps 765 mmHg 92%
21:00 +8°C° 0.1 mm 4 mps 766 mmHg 93%
22:00 +7°C° 0.1 mm 4 mps 766 mmHg 95%
23:00 +7°C° 0 mm 4 mps 766 mmHg 95%

18 April, Sunday

Time Temperature Precipitation Wind Pressure Humidity
00:00 +7°C° 0 mm 3 mps 765 mmHg 95%
01:00 +7°C° 0 mm 3 mps 765 mmHg 95%
02:00 +7°C° 0 mm 3 mps 765 mmHg 95%
03:00 +7°C° 0 mm 3 mps 766 mmHg 95%
04:00 +5°C° 0 mm 3 mps 766 mmHg 94%
05:00 +7°C° 0 mm 3 mps 766 mmHg 92%
06:00 +8°C° 0 mm 3 mps 766 mmHg 91%
07:00 +8°C° 0 mm 3 mps 766 mmHg 89%
08:00 +9°C° 0.1 mm 3 mps 766 mmHg 88%
09:00 +9°C° 0.1 mm 3 mps 766 mmHg 87%
10:00 +9°C° 0.1 mm 2 mps 766 mmHg 86%
11:00 +10°C° 0.2 mm 3 mps 766 mmHg 80%
12:00 +12°C° 0.2 mm 3 mps 766 mmHg 74%
13:00 +13°C° 0.2 mm 4 mps 765 mmHg 69%
14:00 +12°C° 0.1 mm 4 mps 765 mmHg 68%
15:00 +12°C° 0.1 mm 4 mps 765 mmHg 67%
16:00 +12°C° 0.1 mm 3 mps 765 mmHg 66%
17:00 +11°C° 0 mm 3 mps 766 mmHg 69%
18:00 +10°C° 0 mm 2 mps 766 mmHg 73%
19:00 +9°C° 0 mm 2 mps 766 mmHg 77%
20:00 +9°C° 0 mm 2 mps 766 mmHg 79%
21:00 +8°C° 0 mm 2 mps 766 mmHg 82%
22:00 +8°C° 0 mm 2 mps 766 mmHg 84%
23:00 +8°C° 0 mm 2 mps 766 mmHg 86%

19 April, Monday

Time Temperature Precipitation Wind Pressure Humidity
00:00 +8°C° 0 mm 2 mps 766 mmHg 89%
01:00 +8°C° 0 mm 2 mps 766 mmHg 91%
02:00 +8°C° 0 mm 3 mps 766 mmHg 92%
03:00 +8°C° 0 mm 3 mps 765 mmHg 93%
04:00 +8°C° 0 mm 3 mps 765 mmHg 94%
05:00 +8°C° 0 mm 4 mps 765 mmHg 92%
06:00 +8°C° 0 mm 4 mps 765 mmHg 89%
07:00 +8°C° 0 mm 5 mps 765 mmHg 86%
08:00 +9°C° 0 mm 5 mps 765 mmHg 83%
09:00 +10°C° 0 mm 5 mps 765 mmHg 80%
10:00 +10°C° 0 mm 5 mps 765 mmHg 76%
11:00 +10°C° 0.1 mm 5 mps 765 mmHg 76%
12:00 +12°C° 0.1 mm 5 mps 765 mmHg 76%
13:00 +12°C° 0.1 mm 5 mps 765 mmHg 75%
14:00 +10°C° 0.1 mm 5 mps 764 mmHg 77%
15:00 +10°C° 0.1 mm 5 mps 764 mmHg 79%
16:00 +10°C° 0.1 mm 5 mps 764 mmHg 80%
17:00 +9°C° 0.1 mm 5 mps 764 mmHg 82%
18:00 +9°C° 0.1 mm 5 mps 764 mmHg 83%
19:00 +9°C° 0.1 mm 5 mps 764 mmHg 84%
20:00 +9°C° 0 mm 5 mps 764 mmHg 85%
21:00 +9°C° 0 mm 5 mps 764 mmHg 87%
22:00 +9°C° 0 mm 5 mps 764 mmHg 88%
23:00 +10°C° 0 mm 4 mps 764 mmHg 89%
Show more